• Em Portugal
  • Lista de países
  • Para 7 dias
  • Temperatura da água
  • Mapas de satélite
  • Mapa do tempo
  • Widgets de tempo
  • user-avatar
    Iniciar Sessão

    Previsão horária em Cuilapa

    Hoje, 11 Dezembro, Segunda-feira

    Tempo Temperatura Precipitação Vento Pressão Humidade
    00:00 +14°C° 0 mm 5 m/s 689 mmHg 69%
    01:00 +14°C° 0 mm 5 m/s 689 mmHg 69%
    02:00 +14°C° 0 mm 5 m/s 688 mmHg 69%
    03:00 +14°C° 0 mm 4 m/s 688 mmHg 69%
    04:00 +13°C° 0 mm 4 m/s 688 mmHg 70%
    05:00 +13°C° 0 mm 4 m/s 688 mmHg 70%
    06:00 +13°C° 0 mm 4 m/s 688 mmHg 71%
    07:00 +15°C° 0 mm 4 m/s 689 mmHg 65%
    08:00 +17°C° 0 mm 5 m/s 689 mmHg 60%
    09:00 +19°C° 0 mm 5 m/s 690 mmHg 54%
    10:00 +21°C° 0 mm 4 m/s 690 mmHg 48%
    11:00 +23°C° 0 mm 4 m/s 690 mmHg 43%
    12:00 +26°C° 0 mm 3 m/s 690 mmHg 37%
    13:00 +27°C° 0 mm 3 m/s 689 mmHg 37%
    14:00 +27°C° 0 mm 3 m/s 689 mmHg 37%
    15:00 +27°C° 0 mm 3 m/s 688 mmHg 37%
    16:00 +24°C° 0 mm 3 m/s 688 mmHg 46%
    17:00 +21°C° 0 mm 3 m/s 687 mmHg 56%
    18:00 +19°C° 0 mm 2 m/s 687 mmHg 65%
    19:00 +18°C° 0 mm 3 m/s 688 mmHg 67%
    20:00 +18°C° 0 mm 3 m/s 688 mmHg 69%
    21:00 +17°C° 0 mm 4 m/s 688 mmHg 71%
    22:00 +17°C° 0 mm 4 m/s 688 mmHg 71%
    23:00 +17°C° 0 mm 3 m/s 688 mmHg 71%

    Amanhã, 12 Dezembro, Terça-feira

    Tempo Temperatura Precipitação Vento Pressão Humidade
    00:00 +16°C° 0 mm 3 m/s 688 mmHg 71%
    01:00 +16°C° 0 mm 3 m/s 688 mmHg 71%
    02:00 +16°C° 0 mm 3 m/s 687 mmHg 71%
    03:00 +14°C° 0 mm 3 m/s 687 mmHg 71%
    04:00 +14°C° 0 mm 3 m/s 687 mmHg 70%
    05:00 +14°C° 0 mm 3 m/s 687 mmHg 70%
    06:00 +14°C° 0 mm 3 m/s 687 mmHg 69%
    07:00 +17°C° 0 mm 3 m/s 688 mmHg 64%
    08:00 +19°C° 0 mm 3 m/s 689 mmHg 58%
    09:00 +21°C° 0 mm 3 m/s 690 mmHg 52%
    10:00 +24°C° 0 mm 3 m/s 690 mmHg 48%
    11:00 +26°C° 0 mm 3 m/s 689 mmHg 43%
    12:00 +27°C° 0 mm 3 m/s 689 mmHg 38%
    13:00 +28°C° 0 mm 3 m/s 689 mmHg 39%
    14:00 +28°C° 0 mm 3 m/s 688 mmHg 39%
    15:00 +28°C° 0 mm 3 m/s 688 mmHg 40%
    16:00 +25°C° 0 mm 3 m/s 687 mmHg 49%
    17:00 +22°C° 0 mm 3 m/s 687 mmHg 59%
    18:00 +20°C° 0 mm 2 m/s 687 mmHg 68%
    19:00 +19°C° 0 mm 3 m/s 687 mmHg 70%
    20:00 +18°C° 0 mm 3 m/s 688 mmHg 73%
    21:00 +18°C° 0 mm 3 m/s 688 mmHg 75%
    22:00 +17°C° 0 mm 3 m/s 688 mmHg 75%
    23:00 +17°C° 0 mm 3 m/s 688 mmHg 75%

    Depois de amanhã, 13 Dezembro, Quarta-feira

    Tempo Temperatura Precipitação Vento Pressão Humidade
    00:00 +17°C° 0 mm 3 m/s 688 mmHg 75%
    01:00 +17°C° 0 mm 3 m/s 687 mmHg 75%
    02:00 +17°C° 0 mm 3 m/s 687 mmHg 75%
    03:00 +16°C° 0 mm 3 m/s 687 mmHg 75%
    04:00 +16°C° 0 mm 3 m/s 687 mmHg 75%
    05:00 +16°C° 0 mm 3 m/s 687 mmHg 75%
    06:00 +16°C° 0 mm 3 m/s 687 mmHg 75%
    07:00 +18°C° 0 mm 3 m/s 688 mmHg 69%
    08:00 +20°C° 0 mm 3 m/s 689 mmHg 63%
    09:00 +21°C° 0 mm 3 m/s 690 mmHg 57%
    10:00 +24°C° 0 mm 3 m/s 689 mmHg 51%
    11:00 +26°C° 0 mm 3 m/s 689 mmHg 46%
    12:00 +28°C° 0 mm 3 m/s 689 mmHg 40%
    13:00 +28°C° 0 mm 3 m/s 689 mmHg 41%
    14:00 +28°C° 0 mm 3 m/s 688 mmHg 41%
    15:00 +28°C° 0 mm 3 m/s 687 mmHg 42%
    16:00 +25°C° 0 mm 3 m/s 687 mmHg 51%
    17:00 +23°C° 0 mm 2 m/s 687 mmHg 60%
    18:00 +20°C° 0 mm 2 m/s 687 mmHg 69%
    19:00 +19°C° 0 mm 2 m/s 687 mmHg 71%
    20:00 +18°C° 0 mm 2 m/s 687 mmHg 73%
    21:00 +18°C° 0 mm 3 m/s 688 mmHg 75%
    22:00 +17°C° 0 mm 3 m/s 688 mmHg 76%
    23:00 +17°C° 0 mm 3 m/s 687 mmHg 76%

    14 Dezembro, Quinta-feira

    Tempo Temperatura Precipitação Vento Pressão Humidade
    00:00 +17°C° 0 mm 3 m/s 687 mmHg 77%
    01:00 +17°C° 0 mm 3 m/s 687 mmHg 77%
    02:00 +16°C° 0 mm 3 m/s 686 mmHg 78%
    03:00 +16°C° 0 mm 3 m/s 686 mmHg 78%
    04:00 +16°C° 0 mm 2 m/s 686 mmHg 78%
    05:00 +16°C° 0 mm 2 m/s 686 mmHg 78%
    06:00 +16°C° 0 mm 2 m/s 686 mmHg 78%
    07:00 +18°C° 0 mm 2 m/s 687 mmHg 69%
    08:00 +21°C° 0 mm 2 m/s 688 mmHg 59%
    09:00 +25°C° 0 mm 1 m/s 688 mmHg 50%
    10:00 +27°C° 0 mm 1 m/s 688 mmHg 45%
    11:00 +29°C° 0 mm 1 m/s 688 mmHg 39%
    12:00 +31°C° 0 mm 1 m/s 688 mmHg 34%
    13:00 +30°C° 0 mm 2 m/s 687 mmHg 35%
    14:00 +30°C° 0 mm 2 m/s 686 mmHg 37%
    15:00 +30°C° 0 mm 2 m/s 686 mmHg 38%
    16:00 +27°C° 0 mm 2 m/s 685 mmHg 48%
    17:00 +24°C° 0 mm 1 m/s 685 mmHg 59%
    18:00 +21°C° 0 mm 1 m/s 685 mmHg 69%
    19:00 +21°C° 0 mm 1 m/s 686 mmHg 72%
    20:00 +20°C° 0 mm 1 m/s 686 mmHg 74%
    21:00 +20°C° 0 mm 1 m/s 687 mmHg 77%
    22:00 +20°C° 0 mm 1 m/s 687 mmHg 77%
    23:00 +19°C° 0 mm 1 m/s 686 mmHg 78%

    15 Dezembro, Sexta-feira

    Tempo Temperatura Precipitação Vento Pressão Humidade
    00:00 +18°C° 0 mm 2 m/s 686 mmHg 78%
    01:00 +18°C° 0 mm 2 m/s 686 mmHg 78%
    02:00 +18°C° 0 mm 2 m/s 686 mmHg 78%
    03:00 +18°C° 0 mm 2 m/s 685 mmHg 78%
    04:00 +18°C° 0 mm 2 m/s 686 mmHg 78%
    05:00 +18°C° 0 mm 2 m/s 686 mmHg 79%
    06:00 +18°C° 0 mm 2 m/s 686 mmHg 79%
    07:00 +20°C° 0 mm 2 m/s 687 mmHg 71%
    08:00 +23°C° 0 mm 2 m/s 688 mmHg 64%
    09:00 +26°C° 0 mm 2 m/s 689 mmHg 56%
    10:00 +27°C° 0 mm 2 m/s 689 mmHg 51%
    11:00 +29°C° 0 mm 3 m/s 689 mmHg 45%
    12:00 +30°C° 0 mm 3 m/s 689 mmHg 39%
    13:00 +30°C° 0 mm 3 m/s 688 mmHg 41%
    14:00 +30°C° 0 mm 3 m/s 687 mmHg 43%
    15:00 +29°C° 0 mm 4 m/s 687 mmHg 44%
    16:00 +27°C° 0 mm 3 m/s 687 mmHg 53%
    17:00 +25°C° 0 mm 3 m/s 687 mmHg 61%
    18:00 +23°C° 0 mm 2 m/s 687 mmHg 69%
    19:00 +21°C° 0 mm 3 m/s 687 mmHg 72%
    20:00 +21°C° 0 mm 3 m/s 688 mmHg 74%
    21:00 +20°C° 0 mm 3 m/s 688 mmHg 77%
    22:00 +20°C° 0 mm 3 m/s 688 mmHg 77%
    23:00 +20°C° 0 mm 3 m/s 688 mmHg 76%

    16 Dezembro, Sábado

    Tempo Temperatura Precipitação Vento Pressão Humidade
    00:00 +20°C° 0 mm 3 m/s 687 mmHg 76%
    01:00 +20°C° 0 mm 3 m/s 687 mmHg 76%
    02:00 +20°C° 0 mm 3 m/s 687 mmHg 76%
    03:00 +19°C° 0 mm 3 m/s 686 mmHg 76%
    04:00 +20°C° 0 mm 3 m/s 687 mmHg 75%
    05:00 +20°C° 0 mm 3 m/s 687 mmHg 75%
    06:00 +20°C° 0 mm 3 m/s 687 mmHg 74%
    07:00 +21°C° 0 mm 3 m/s 688 mmHg 69%
    08:00 +24°C° 0 mm 3 m/s 688 mmHg 63%
    09:00 +26°C° 0 mm 3 m/s 689 mmHg 58%
    10:00 +27°C° 0 mm 4 m/s 689 mmHg 53%
    11:00 +29°C° 0 mm 4 m/s 689 mmHg 49%
    12:00 +30°C° 0 mm 4 m/s 689 mmHg 45%
    13:00 +30°C° 0 mm 4 m/s 688 mmHg 46%
    14:00 +29°C° 0 mm 4 m/s 687 mmHg 48%
    15:00 +29°C° 0 mm 4 m/s 687 mmHg 50%
    16:00 +27°C° 0 mm 3 m/s 687 mmHg 57%
    17:00 +25°C° 0 mm 3 m/s 686 mmHg 65%
    18:00 +23°C° 0 mm 2 m/s 686 mmHg 73%
    19:00 +21°C° 0 mm 2 m/s 687 mmHg 74%
    20:00 +21°C° 0 mm 2 m/s 687 mmHg 76%
    21:00 +20°C° 0 mm 2 m/s 687 mmHg 78%
    22:00 +20°C° 0 mm 2 m/s 687 mmHg 78%
    23:00 +20°C° 0 mm 2 m/s 687 mmHg 78%
    Mostrar mais